Location: Sandbach
(53.1410°N, 2.3660°W)
Time: 22:31:27
(UTC+00:00)

ISS - Pass Details

Date: 05 December 2021
Orbit: 413 x 422 km, 51.6° (Epoch: 23 January)

Event Time Altitude Azimuth Distance (km) Brightness Sun altitude
Rises 17:38:00 0° 280° (W) 2,386 1.2 -14.6°
Reaches altitude 10° 17:40:16 10° 269° (W) 1,516 0.3 -14.9°
Maximum altitude 17:43:16 29° 207° (SSW) 801 -1.9 -15.3°
Drops below altitude 10° 17:46:15 10° 145° (SE) 1,505 -1.1 -15.8°
Enters shadow 17:46:35 - 143° (SE) 1,624 -1.0 -15.8°
